カタログに戻る

RISAT-2BR2

運用中軍事VLEO
NORAD 46905·PAYLOAD·🇮🇳 India

打ち上げ Nov 7, 2020 から Satish Dhawan Space Centre

Loading…

次のパス (今後24時間)

TLE

最新Source: Space-Track

元期: Sep 14, 2026, 19:18 UTC

1 46905U 20081A   26257.80421081  .00000196  00000-0  21246-4 0  9996
2 46905  36.8983  52.3700 0013905 163.7105 196.4085 15.00892229320940

AllMySatでRISAT-2BR2をリアルタイム追跡

Download on the App Store